KLM1681 EHAM-LIEO

Flight info

Callsign KLM1681
Flight time 1h 47m
Altitude 37000
Route WOODY N872 NIK M624 RITAX DCT SUTAL DCT GTQ DCT DEVDI DCT ODINA DCT ANAKI DCT TORTU DCT RAPUR DCT OKBON DCT BEBEV DCT AJO DCT CORSI
Aircraft A20N/M-SDE2E3FGHIRWXY/LB1

Departure

Time 2026-04-28 18:51
Airport Amsterdam Airport Schiphol (EHAM)

Arrival

Time 2026-04-28 20:39
Airport Olbia Costa Smeralda Airport (LIEO)
Time Latitude Longitude Altitude Speed Heading
2026-04-28 18:17 52.31299 4.75790 0 ft 0 kts 266°
2026-04-28 18:33 52.31299 4.75809 -265 ft 3 kts 266°
2026-04-28 18:33 52.31301 4.75840 -266 ft 3 kts 266°
2026-04-28 18:33 52.31302 4.75870 -1 ft 2 kts 266°
2026-04-28 18:34 52.31304 4.75898 0 ft 3 kts 274°
2026-04-28 18:34 52.31298 4.75926 0 ft 3 kts 313°
2026-04-28 18:34 52.31283 4.75942 0 ft 2 kts 350°
2026-04-28 18:37 52.31318 4.75932 0 ft 8 kts 354°
2026-04-28 18:38 52.31370 4.75927 0 ft 7 kts 357°
2026-04-28 18:38 52.31437 4.75922 1 ft 12 kts 357°
2026-04-28 18:38 52.31517 4.75882 2 ft 12 kts 308°
2026-04-28 18:38 52.31525 4.75738 -2 ft 15 kts 266°
2026-04-28 18:39 52.31518 4.75538 -2 ft 20 kts 266°
2026-04-28 18:39 52.31509 4.75307 -4 ft 21 kts 266°
2026-04-28 18:39 52.31501 4.75080 -2 ft 18 kts 267°
2026-04-28 18:39 52.31495 4.74885 0 ft 16 kts 267°
2026-04-28 18:40 52.31489 4.74707 1 ft 15 kts 266°
2026-04-28 18:40 52.31484 4.74559 4 ft 11 kts 268°
2026-04-28 18:40 52.31481 4.74436 4 ft 12 kts 268°
2026-04-28 18:40 52.31524 4.74302 2 ft 16 kts 344°
2026-04-28 18:41 52.31628 4.74303 3 ft 14 kts
2026-04-28 18:41 52.31742 4.74315 1 ft 20 kts
2026-04-28 18:41 52.31893 4.74328 -2 ft 22 kts
2026-04-28 18:41 52.32026 4.74255 -3 ft 21 kts 291°
2026-04-28 18:42 52.32035 4.74033 -2 ft 18 kts 276°
2026-04-28 18:42 52.32044 4.73850 2 ft 14 kts 273°
2026-04-28 18:42 52.32049 4.73706 4 ft 12 kts 274°
2026-04-28 18:42 52.32054 4.73585 4 ft 10 kts 274°
2026-04-28 18:43 52.32059 4.73478 5 ft 9 kts 276°
2026-04-28 18:43 52.32100 4.73339 3 ft 19 kts 317°
2026-04-28 18:43 52.32217 4.73176 2 ft 23 kts 319°
2026-04-28 18:43 52.32340 4.73002 -1 ft 23 kts 319°
2026-04-28 18:44 52.32445 4.72850 0 ft 18 kts 317°
2026-04-28 18:44 52.32631 4.72588 1 ft 16 kts 317°
2026-04-28 18:44 52.32706 4.72466 0 ft 16 kts 316°
2026-04-28 18:45 52.32788 4.72318 3 ft 12 kts 310°
2026-04-28 18:45 52.32851 4.72200 1 ft 20 kts 311°
2026-04-28 18:45 52.32941 4.72035 0 ft 17 kts 311°
2026-04-28 18:45 52.33012 4.71903 0 ft 14 kts 312°
2026-04-28 18:46 52.33077 4.71784 1 ft 14 kts 311°
2026-04-28 18:46 52.33133 4.71676 2 ft 8 kts 303°
2026-04-28 18:46 52.33149 4.71591 2 ft 8 kts 274°
2026-04-28 18:46 52.33138 4.71505 2 ft 8 kts 255°
2026-04-28 18:47 52.33135 4.71425 2 ft 0 kts 272°
2026-04-28 18:47 52.33115 4.71411 2 ft 11 kts 189°
2026-04-28 18:47 52.33043 4.71362 1 ft 9 kts 220°
2026-04-28 18:47 52.33002 4.71303 0 ft 8 kts 221°
2026-04-28 18:48 52.32969 4.71256 0 ft 5 kts 221°
2026-04-28 18:48 52.32920 4.71183 0 ft 15 kts 226°
2026-04-28 18:48 52.32866 4.71040 -1 ft 14 kts 264°
2026-04-28 18:48 52.32883 4.70912 0 ft 9 kts 311°
2026-04-28 18:49 52.32928 4.70890 -1 ft 0 kts
2026-04-28 18:50 52.33086 4.70907 -4 ft 57 kts
2026-04-28 18:51 52.33739 4.70960 4 ft 132 kts
2026-04-28 18:51 52.34846 4.71035 270 ft 170 kts
2026-04-28 18:51 52.36006 4.71123 1237 ft 167 kts
2026-04-28 18:51 52.37183 4.71185 2259 ft 171 kts
2026-04-28 18:52 52.38411 4.71209 3089 ft 185 kts
2026-04-28 18:52 52.39745 4.71297 3742 ft 194 kts
2026-04-28 18:52 52.41113 4.71591 4380 ft 204 kts 16°
2026-04-28 18:52 52.42342 4.72852 4970 ft 219 kts 47°
2026-04-28 18:53 52.42754 4.73845 5109 ft 233 kts 64°
2026-04-28 18:53 52.42982 4.76587 5480 ft 259 kts 102°
2026-04-28 18:53 52.42045 4.79155 5994 ft 273 kts 141°
2026-04-28 18:53 52.40302 4.80387 6203 ft 279 kts 168°
2026-04-28 18:54 52.38384 4.80864 6012 ft 278 kts 173°
2026-04-28 18:54 52.36465 4.81180 5920 ft 278 kts 175°
2026-04-28 18:54 52.34531 4.81376 5839 ft 278 kts 178°
2026-04-28 18:54 52.32605 4.81595 5838 ft 277 kts 173°
2026-04-28 18:55 52.30709 4.82144 5859 ft 277 kts 167°
2026-04-28 18:55 52.29465 4.82617 6015 ft 276 kts 165°
2026-04-28 18:55 52.26987 4.83881 6820 ft 279 kts 162°
2026-04-28 18:55 52.25130 4.84679 7345 ft 279 kts 172°
2026-04-28 18:56 52.23187 4.84819 7910 ft 280 kts 181°
2026-04-28 18:56 52.21241 4.84744 8485 ft 281 kts 183°
2026-04-28 18:56 52.19282 4.84645 9108 ft 281 kts 182°
2026-04-28 18:56 52.17325 4.84598 9767 ft 282 kts 182°
2026-04-28 18:57 52.15491 4.84565 10370 ft 283 kts 182°
2026-04-28 18:57 52.13504 4.84529 10981 ft 290 kts 182°
2026-04-28 18:57 52.11462 4.84490 11606 ft 298 kts 182°
2026-04-28 18:57 52.09360 4.84448 12248 ft 306 kts 182°
2026-04-28 18:58 52.07203 4.84403 12876 ft 315 kts 182°
2026-04-28 18:58 52.04947 4.84354 13203 ft 334 kts 182°
2026-04-28 18:58 52.02527 4.84350 13237 ft 361 kts 180°
2026-04-28 18:58 52.00000 4.83888 13226 ft 369 kts 200°
2026-04-28 18:59 51.97736 4.82093 13228 ft 367 kts 212°
2026-04-28 18:59 51.95550 4.79960 13229 ft 367 kts 212°
2026-04-28 18:59 51.93328 4.77893 13226 ft 368 kts 211°
2026-04-28 18:59 51.91074 4.75929 13232 ft 368 kts 209°
2026-04-28 19:00 51.88785 4.74027 13229 ft 368 kts 208°
2026-04-28 19:00 51.86490 4.72175 13224 ft 368 kts 208°
2026-04-28 19:00 51.84192 4.70347 13240 ft 369 kts 208°
2026-04-28 19:00 51.81886 4.68533 13233 ft 369 kts 207°
2026-04-28 19:01 51.79574 4.66724 13224 ft 369 kts 207°
2026-04-28 19:01 51.77263 4.64924 13225 ft 369 kts 207°
2026-04-28 19:01 51.74947 4.63122 13232 ft 369 kts 207°
2026-04-28 19:01 51.72640 4.61331 13213 ft 369 kts 206°
2026-04-28 19:02 51.70321 4.59532 13225 ft 371 kts 206°
2026-04-28 19:02 51.67991 4.57728 13210 ft 371 kts 206°
2026-04-28 19:02 51.65661 4.55926 13203 ft 371 kts 206°
2026-04-28 19:02 51.63360 4.54149 13212 ft 371 kts 206°
2026-04-28 19:03 51.61781 4.52929 13366 ft 374 kts 206°
2026-04-28 19:03 51.58659 4.50522 14224 ft 376 kts 207°
2026-04-28 19:03 51.56294 4.48703 14831 ft 376 kts 207°
2026-04-28 19:03 51.53927 4.46886 15445 ft 377 kts 207°
2026-04-28 19:04 51.52354 4.45679 15864 ft 378 kts 207°
2026-04-28 19:04 51.49974 4.43851 16496 ft 380 kts 207°
2026-04-28 19:04 51.47549 4.41992 17159 ft 382 kts 207°
2026-04-28 19:04 51.45138 4.40146 17824 ft 385 kts 207°
2026-04-28 19:05 51.42745 4.38315 18495 ft 387 kts 207°
2026-04-28 19:05 51.40312 4.36456 19089 ft 389 kts 207°
2026-04-28 19:05 51.37862 4.34590 19691 ft 390 kts 207°
2026-04-28 19:05 51.35400 4.32719 20315 ft 391 kts 207°
2026-04-28 19:06 51.32943 4.30852 20940 ft 392 kts 207°
2026-04-28 19:06 51.30465 4.28970 21378 ft 398 kts 207°
2026-04-28 19:06 51.27941 4.27051 21753 ft 405 kts 207°
2026-04-28 19:06 51.25378 4.25107 22220 ft 409 kts 207°
2026-04-28 19:07 51.22797 4.23151 22760 ft 412 kts 207°
2026-04-28 19:07 51.20198 4.21185 23278 ft 414 kts 208°
2026-04-28 19:07 51.17571 4.19281 23762 ft 418 kts 202°
2026-04-28 19:07 51.14686 4.18436 24153 ft 428 kts 183°
2026-04-28 19:08 51.11717 4.19090 24550 ft 437 kts 165°
2026-04-28 19:08 51.08875 4.20931 24954 ft 442 kts 158°
2026-04-28 19:08 51.06174 4.23301 25326 ft 447 kts 150°
2026-04-28 19:08 51.03566 4.26073 25682 ft 451 kts 147°
2026-04-28 19:09 51.01025 4.29042 26041 ft 455 kts 146°
2026-04-28 19:09 50.98550 4.32103 26394 ft 457 kts 144°
2026-04-28 19:09 50.96058 4.35270 26735 ft 460 kts 144°
2026-04-28 19:09 50.93556 4.38479 27065 ft 463 kts 144°
2026-04-28 19:10 50.91042 4.41698 27401 ft 465 kts 145°
2026-04-28 19:10 50.88508 4.44924 27723 ft 468 kts 145°
2026-04-28 19:10 50.85963 4.48142 28041 ft 470 kts 146°
2026-04-28 19:10 50.83391 4.51378 28345 ft 472 kts 146°
2026-04-28 19:11 50.80813 4.54610 28773 ft 472 kts 146°
2026-04-28 19:11 50.78233 4.57792 29214 ft 470 kts 148°
2026-04-28 19:11 50.75582 4.60803 29649 ft 467 kts 150°
2026-04-28 19:11 50.72957 4.63708 30068 ft 467 kts 150°
2026-04-28 19:12 50.70303 4.66653 30437 ft 466 kts 150°
2026-04-28 19:12 50.67648 4.69597 30755 ft 466 kts 150°
2026-04-28 19:12 50.65003 4.72521 31062 ft 465 kts 150°
2026-04-28 19:12 50.62354 4.75442 31371 ft 465 kts 150°
2026-04-28 19:13 50.59688 4.78374 31667 ft 465 kts 150°
2026-04-28 19:13 50.57035 4.81288 31962 ft 465 kts 150°
2026-04-28 19:13 50.54380 4.84200 32246 ft 465 kts 150°
2026-04-28 19:13 50.51723 4.87112 32525 ft 465 kts 150°
2026-04-28 19:14 50.49068 4.90021 32801 ft 465 kts 150°
2026-04-28 19:14 50.46406 4.92936 33064 ft 466 kts 150°
2026-04-28 19:14 50.43752 4.95844 33325 ft 466 kts 150°
2026-04-28 19:14 50.41095 4.98754 33594 ft 466 kts 150°
2026-04-28 19:15 50.38441 5.01668 33844 ft 466 kts 150°
2026-04-28 19:15 50.35785 5.04588 34099 ft 465 kts 150°
2026-04-28 19:15 50.33170 5.07461 34310 ft 465 kts 150°
2026-04-28 19:15 50.31377 5.09425 34445 ft 465 kts 150°
2026-04-28 19:16 50.27863 5.13260 34732 ft 464 kts 150°
2026-04-28 19:16 50.25203 5.16144 34931 ft 464 kts 150°
2026-04-28 19:16 50.22549 5.19007 35109 ft 464 kts 150°
2026-04-28 19:16 50.19913 5.21841 35289 ft 465 kts 150°
2026-04-28 19:17 50.17221 5.24721 35462 ft 464 kts 150°
2026-04-28 19:17 50.14548 5.27565 35660 ft 465 kts 150°
2026-04-28 19:17 50.11908 5.30362 35821 ft 465 kts 150°
2026-04-28 19:17 50.09225 5.33192 35987 ft 465 kts 150°
2026-04-28 19:18 50.06545 5.36006 36155 ft 465 kts 150°
2026-04-28 19:18 50.03856 5.38817 36309 ft 465 kts 150°
2026-04-28 19:18 50.01200 5.41701 36454 ft 467 kts 147°
2026-04-28 19:18 49.98633 5.44819 36604 ft 468 kts 145°
2026-04-28 19:19 49.96093 5.48030 36759 ft 469 kts 144°
2026-04-28 19:19 49.93587 5.51272 36924 ft 469 kts 144°
2026-04-28 19:19 49.91096 5.54526 37065 ft 469 kts 143°
2026-04-28 19:19 49.88595 5.57797 37126 ft 471 kts 143°
2026-04-28 19:20 49.83575 5.64332 37128 ft 478 kts 144°
2026-04-28 19:20 49.78438 5.70974 37127 ft 484 kts 144°
2026-04-28 19:21 49.73226 5.77684 37117 ft 486 kts 144°
2026-04-28 19:21 49.68028 5.84359 37112 ft 485 kts 144°
2026-04-28 19:22 49.63713 5.89884 37109 ft 485 kts 144°
2026-04-28 19:22 49.57657 5.97615 37105 ft 485 kts 144°
2026-04-28 19:23 49.52450 6.04239 37102 ft 485 kts 144°
2026-04-28 19:23 49.47282 6.10797 37103 ft 485 kts 144°
2026-04-28 19:24 49.42040 6.17430 37101 ft 485 kts 144°
2026-04-28 19:24 49.36812 6.24025 37101 ft 486 kts 144°
2026-04-28 19:25 49.31594 6.30590 37095 ft 486 kts 144°
2026-04-28 19:25 49.26365 6.37149 37085 ft 486 kts 145°
2026-04-28 19:26 49.21125 6.43704 37080 ft 486 kts 145°
2026-04-28 19:26 49.15893 6.50231 37080 ft 486 kts 145°
2026-04-28 19:27 49.09557 6.56534 37075 ft 479 kts 156°
2026-04-28 19:27 48.85785 6.74243 37077 ft 480 kts 158°
2026-04-28 19:28 48.61812 6.91902 37062 ft 479 kts 159°
2026-04-28 19:28 48.37748 7.09440 37059 ft 480 kts 159°
2026-04-28 19:29 48.17686 7.23919 37047 ft 478 kts 159°
2026-04-28 19:29 47.89723 7.43889 37050 ft 476 kts 159°
2026-04-28 19:30 47.65963 7.60671 37043 ft 476 kts 160°
2026-04-28 19:30 47.43512 7.76371 37067 ft 479 kts 160°
2026-04-28 19:31 47.25802 7.88649 37083 ft 479 kts 160°
2026-04-28 19:31 47.19713 7.92852 37093 ft 480 kts 160°
2026-04-28 19:32 47.13699 7.96994 37092 ft 481 kts 159°
2026-04-28 19:32 47.07636 8.01158 37094 ft 480 kts 159°
2026-04-28 19:33 47.01593 8.05298 37099 ft 480 kts 159°
2026-04-28 19:33 46.95540 8.09432 37099 ft 479 kts 159°
2026-04-28 19:34 46.89503 8.13545 37102 ft 478 kts 159°
2026-04-28 19:34 46.83472 8.17643 37106 ft 477 kts 159°
2026-04-28 19:35 46.77447 8.21728 37108 ft 477 kts 159°
2026-04-28 19:35 46.71468 8.25772 37098 ft 476 kts 159°
2026-04-28 19:36 46.65454 8.29830 37104 ft 476 kts 159°
2026-04-28 19:36 46.59434 8.33881 37108 ft 476 kts 159°
2026-04-28 19:37 46.54439 8.37236 37111 ft 476 kts 159°
2026-04-28 19:37 46.47416 8.41939 37102 ft 475 kts 159°
2026-04-28 19:38 46.41446 8.45927 37107 ft 475 kts 159°
2026-04-28 19:38 46.35445 8.49929 37094 ft 475 kts 159°
2026-04-28 19:39 46.29434 8.53926 37084 ft 475 kts 159°
2026-04-28 19:39 46.23425 8.57911 37080 ft 474 kts 159°
2026-04-28 19:40 46.17428 8.61879 37075 ft 474 kts 160°
2026-04-28 19:40 46.11483 8.65779 37070 ft 473 kts 162°
2026-04-28 19:41 46.08348 8.66999 37080 ft 463 kts 176°
2026-04-28 19:41 46.05161 8.67404 37072 ft 458 kts 183°
2026-04-28 19:41 45.98793 8.67340 37068 ft 457 kts 186°
2026-04-28 19:42 45.92422 8.67199 37073 ft 459 kts 185°
2026-04-28 19:42 45.87110 8.67251 37060 ft 460 kts 184°
2026-04-28 19:43 45.79619 8.67474 37027 ft 461 kts 183°
2026-04-28 19:43 45.73196 8.68011 37019 ft 463 kts 180°
2026-04-28 19:44 45.66795 8.68792 37026 ft 464 kts 179°
2026-04-28 19:44 45.60357 8.69620 37015 ft 464 kts 179°
2026-04-28 19:45 45.53916 8.70430 37018 ft 464 kts 179°
2026-04-28 19:45 45.47471 8.71223 37024 ft 464 kts 179°
2026-04-28 19:46 45.41078 8.72003 37047 ft 464 kts 179°
2026-04-28 19:46 45.34644 8.72786 37047 ft 464 kts 179°
2026-04-28 19:47 45.28198 8.73570 37046 ft 465 kts 179°
2026-04-28 19:47 45.21808 8.74345 37043 ft 465 kts 179°
2026-04-28 19:48 45.15317 8.75130 37046 ft 465 kts 179°
2026-04-28 19:48 45.08833 8.75914 37046 ft 465 kts 179°
2026-04-28 19:49 45.02428 8.76686 37047 ft 465 kts 179°
2026-04-28 19:49 44.95988 8.77460 37047 ft 465 kts 179°
2026-04-28 19:50 44.86322 8.78619 37045 ft 464 kts 179°
2026-04-28 19:51 44.80969 8.79259 37044 ft 464 kts 179°
2026-04-28 19:51 44.74540 8.80026 37046 ft 463 kts 179°
2026-04-28 19:52 44.68101 8.80793 37050 ft 463 kts 179°
2026-04-28 19:52 44.61669 8.81557 37049 ft 463 kts 179°
2026-04-28 19:53 44.55288 8.82312 37049 ft 463 kts 179°
2026-04-28 19:53 44.48857 8.83073 37049 ft 463 kts 179°
2026-04-28 19:54 44.42428 8.83831 37046 ft 463 kts 179°
2026-04-28 19:54 44.36002 8.84588 37046 ft 463 kts 179°
2026-04-28 19:55 44.29576 8.85343 37048 ft 463 kts 179°
2026-04-28 19:55 44.23153 8.86096 37051 ft 463 kts 179°
2026-04-28 19:56 44.16774 8.86842 37049 ft 463 kts 179°
2026-04-28 19:56 44.10349 8.87592 37051 ft 463 kts 179°
2026-04-28 19:57 44.03926 8.88341 37048 ft 463 kts 179°
2026-04-28 19:57 43.97505 8.89087 37050 ft 463 kts 179°
2026-04-28 19:58 43.91075 8.89832 37053 ft 463 kts 179°
2026-04-28 19:58 43.84688 8.90571 37054 ft 463 kts 179°
2026-04-28 19:59 43.78264 8.91313 37054 ft 463 kts 179°
2026-04-28 19:59 43.71839 8.92053 37046 ft 463 kts 179°
2026-04-28 20:00 43.65423 8.92791 37046 ft 463 kts 179°
2026-04-28 20:00 43.59005 8.93427 37044 ft 461 kts 183°
2026-04-28 20:01 43.52615 8.93234 37049 ft 459 kts 186°
2026-04-28 20:01 43.45127 8.92827 37047 ft 459 kts 186°
2026-04-28 20:02 42.97723 8.90170 36985 ft 457 kts 186°
2026-04-28 20:02 42.91363 8.89808 37066 ft 457 kts 186°
2026-04-28 20:03 42.85021 8.89455 36554 ft 456 kts 185°
2026-04-28 20:03 42.81845 8.89278 36037 ft 457 kts 185°
2026-04-28 20:03 42.78656 8.89101 35531 ft 459 kts 185°
2026-04-28 20:03 42.75462 8.88923 35036 ft 460 kts 185°
2026-04-28 20:04 42.72260 8.88746 34551 ft 461 kts 185°
2026-04-28 20:04 42.69046 8.88568 34074 ft 462 kts 184°
2026-04-28 20:04 42.65834 8.88391 33536 ft 463 kts 184°
2026-04-28 20:04 42.62607 8.88213 32999 ft 464 kts 184°
2026-04-28 20:05 42.59372 8.88034 32476 ft 465 kts 184°
2026-04-28 20:05 42.56176 8.87858 31965 ft 466 kts 184°
2026-04-28 20:05 42.52925 8.87680 31461 ft 467 kts 184°
2026-04-28 20:05 42.49670 8.87502 30965 ft 468 kts 184°
2026-04-28 20:06 42.46407 8.87322 30477 ft 470 kts 184°
2026-04-28 20:06 42.43141 8.87143 29987 ft 470 kts 184°
2026-04-28 20:06 42.39865 8.86964 29429 ft 469 kts 184°
2026-04-28 20:06 42.36619 8.86786 28890 ft 465 kts 184°
2026-04-28 20:07 42.33402 8.86611 28337 ft 461 kts 184°
2026-04-28 20:07 42.31286 8.86496 27984 ft 458 kts 184°
2026-04-28 20:07 42.27047 8.86264 27282 ft 452 kts 184°
2026-04-28 20:07 42.23920 8.86094 26774 ft 448 kts 184°
2026-04-28 20:08 42.20821 8.85924 26286 ft 445 kts 184°
2026-04-28 20:08 42.17735 8.85756 25785 ft 441 kts 184°
2026-04-28 20:08 42.14677 8.85590 25304 ft 437 kts 184°
2026-04-28 20:08 42.11691 8.85428 24829 ft 431 kts 184°
2026-04-28 20:09 42.08737 8.85268 24346 ft 419 kts 184°
2026-04-28 20:09 42.05872 8.85115 23869 ft 404 kts 184°
2026-04-28 20:09 42.03110 8.84966 23380 ft 392 kts 184°
2026-04-28 20:09 42.00420 8.84820 22832 ft 381 kts 184°
2026-04-28 20:10 41.97797 8.84678 22294 ft 371 kts 184°
2026-04-28 20:10 41.95243 8.84540 21767 ft 362 kts 184°
2026-04-28 20:10 41.92760 8.84405 21251 ft 354 kts 184°
2026-04-28 20:10 41.90323 8.84274 20741 ft 346 kts 184°
2026-04-28 20:11 41.87932 8.84145 20239 ft 339 kts 184°
2026-04-28 20:11 41.85600 8.84019 19750 ft 333 kts 184°
2026-04-28 20:11 41.83336 8.83896 19265 ft 326 kts 184°
2026-04-28 20:11 41.81086 8.83776 18801 ft 321 kts 184°
2026-04-28 20:12 41.78870 8.83656 18332 ft 316 kts 184°
2026-04-28 20:12 41.76695 8.83539 17799 ft 311 kts 184°
2026-04-28 20:12 41.74550 8.83423 17290 ft 305 kts 184°
2026-04-28 20:12 41.73160 8.83349 17086 ft 298 kts 184°
2026-04-28 20:13 41.70417 8.83201 17031 ft 295 kts 184°
2026-04-28 20:13 41.68371 8.83091 17016 ft 295 kts 184°
2026-04-28 20:13 41.66318 8.82980 17018 ft 295 kts 184°
2026-04-28 20:13 41.64267 8.82870 17017 ft 295 kts 184°
2026-04-28 20:14 41.62221 8.82761 17016 ft 295 kts 184°
2026-04-28 20:14 41.60168 8.82651 17022 ft 295 kts 184°
2026-04-28 20:14 41.58117 8.82542 17019 ft 295 kts 184°
2026-04-28 20:14 41.56068 8.82433 17016 ft 295 kts 184°
2026-04-28 20:15 41.54015 8.82323 17014 ft 295 kts 184°
2026-04-28 20:15 41.51966 8.82214 17020 ft 295 kts 184°
2026-04-28 20:15 41.49920 8.82104 17028 ft 294 kts 184°
2026-04-28 20:15 41.47901 8.81997 17013 ft 294 kts 184°
2026-04-28 20:16 41.45854 8.81888 17014 ft 294 kts 184°
2026-04-28 20:16 41.43807 8.81779 17017 ft 294 kts 184°
2026-04-28 20:16 41.41758 8.81670 17022 ft 294 kts 185°
2026-04-28 20:16 41.39713 8.81562 17022 ft 294 kts 185°
2026-04-28 20:17 41.37665 8.81453 17020 ft 294 kts 185°
2026-04-28 20:17 41.35618 8.81344 17015 ft 294 kts 185°
2026-04-28 20:17 41.33565 8.81276 17006 ft 295 kts 177°
2026-04-28 20:17 41.31631 8.82160 17023 ft 299 kts 148°
2026-04-28 20:18 41.29980 8.83867 17024 ft 303 kts 142°
2026-04-28 20:18 41.28912 8.85068 17023 ft 304 kts 142°
2026-04-28 20:18 41.26723 8.87453 16765 ft 304 kts 144°
2026-04-28 20:18 41.25057 8.89181 16382 ft 303 kts 145°
2026-04-28 20:19 41.23408 8.90846 16023 ft 300 kts 145°
2026-04-28 20:19 41.21716 8.92528 15668 ft 298 kts 146°
2026-04-28 20:19 41.20053 8.94164 15313 ft 297 kts 145°
2026-04-28 20:19 41.18397 8.95787 14963 ft 295 kts 146°
2026-04-28 20:20 41.16764 8.97380 14624 ft 294 kts 146°
2026-04-28 20:20 41.15123 8.98979 14268 ft 292 kts 146°
2026-04-28 20:20 41.13480 9.00577 13925 ft 291 kts 146°
2026-04-28 20:20 41.11842 9.02141 13594 ft 289 kts 146°
2026-04-28 20:21 41.10202 9.03666 13260 ft 287 kts 147°
2026-04-28 20:21 41.08568 9.05176 12907 ft 284 kts 147°
2026-04-28 20:21 41.06949 9.06668 12581 ft 282 kts 147°
2026-04-28 20:21 41.05362 9.08129 12266 ft 280 kts 147°
2026-04-28 20:22 41.03766 9.09599 11927 ft 279 kts 147°
2026-04-28 20:22 41.02171 9.11063 11593 ft 277 kts 147°
2026-04-28 20:22 41.00591 9.12516 11294 ft 275 kts 147°
2026-04-28 20:22 40.99136 9.14152 10949 ft 277 kts 127°
2026-04-28 20:23 40.98479 9.16525 10594 ft 280 kts 93°
2026-04-28 20:23 40.98916 9.19012 10266 ft 281 kts 59°
2026-04-28 20:23 41.00248 9.20881 9936 ft 281 kts 39°
2026-04-28 20:23 41.01751 9.22520 9566 ft 279 kts 42°
2026-04-28 20:24 41.03145 9.24302 9192 ft 278 kts 47°
2026-04-28 20:24 41.04416 9.26207 9033 ft 275 kts 51°
2026-04-28 20:24 41.05609 9.28186 9024 ft 276 kts 53°
2026-04-28 20:24 41.06764 9.30215 9017 ft 276 kts 54°
2026-04-28 20:25 41.07651 9.32434 9017 ft 272 kts 80°
2026-04-28 20:25 41.07530 9.34830 9016 ft 264 kts 115°
2026-04-28 20:25 41.06400 9.36688 9019 ft 257 kts 151°
2026-04-28 20:25 41.04748 9.37547 9026 ft 257 kts 165°
2026-04-28 20:26 41.03064 9.38297 9015 ft 260 kts 160°
2026-04-28 20:26 41.01368 9.39147 8684 ft 261 kts 169°
2026-04-28 20:26 40.99579 9.39325 8339 ft 257 kts 187°
2026-04-28 20:26 40.97893 9.38644 8005 ft 254 kts 210°
2026-04-28 20:27 40.96593 9.37097 7663 ft 253 kts 230°
2026-04-28 20:27 40.95528 9.35247 7327 ft 251 kts 233°
2026-04-28 20:27 40.94516 9.33373 7072 ft 249 kts 233°
2026-04-28 20:27 40.93507 9.31508 7035 ft 250 kts 233°
2026-04-28 20:28 40.92491 9.29641 7012 ft 250 kts 233°
2026-04-28 20:28 40.91466 9.27779 7017 ft 250 kts 233°
2026-04-28 20:28 40.90443 9.25920 7025 ft 250 kts 233°
2026-04-28 20:28 40.89418 9.24052 7018 ft 250 kts 233°
2026-04-28 20:29 40.88412 9.22175 7015 ft 250 kts 234°
2026-04-28 20:29 40.87413 9.20288 7014 ft 251 kts 234°
2026-04-28 20:29 40.86418 9.18398 7022 ft 251 kts 234°
2026-04-28 20:29 40.85424 9.16508 7035 ft 251 kts 234°
2026-04-28 20:30 40.84446 9.14647 7032 ft 250 kts 233°
2026-04-28 20:30 40.83444 9.12764 7020 ft 250 kts 233°
2026-04-28 20:30 40.82440 9.10871 7025 ft 250 kts 234°
2026-04-28 20:30 40.81455 9.09014 7015 ft 249 kts 233°
2026-04-28 20:31 40.80308 9.07299 6817 ft 249 kts 219°
2026-04-28 20:31 40.78824 9.06171 6446 ft 246 kts 197°
2026-04-28 20:31 40.77147 9.05976 6158 ft 246 kts 171°
2026-04-28 20:31 40.75587 9.06849 6025 ft 244 kts 143°
2026-04-28 20:32 40.74577 9.08635 6029 ft 248 kts 109°
2026-04-28 20:32 40.74383 9.10922 6035 ft 254 kts 92°
2026-04-28 20:32 40.74428 9.13231 6020 ft 256 kts 90°
2026-04-28 20:32 40.74486 9.15580 6028 ft 257 kts 91°
2026-04-28 20:33 40.74521 9.17911 6039 ft 248 kts 91°
2026-04-28 20:33 40.74538 9.20156 5953 ft 242 kts 92°
2026-04-28 20:33 40.74728 9.22342 5536 ft 244 kts 75°
2026-04-28 20:33 40.75453 9.24365 5194 ft 245 kts 59°
2026-04-28 20:34 40.76412 9.26164 5013 ft 232 kts 56°
2026-04-28 20:34 40.77340 9.27838 4827 ft 222 kts 55°
2026-04-28 20:34 40.78228 9.29489 4512 ft 220 kts 57°
2026-04-28 20:34 40.79092 9.31167 4138 ft 221 kts 57°
2026-04-28 20:35 40.79962 9.32829 3782 ft 218 kts 57°
2026-04-28 20:35 40.80803 9.34428 3439 ft 207 kts 57°
2026-04-28 20:35 40.81608 9.35965 3125 ft 200 kts 57°
2026-04-28 20:35 40.82394 9.37467 2846 ft 197 kts 57°
2026-04-28 20:36 40.83161 9.38931 2535 ft 194 kts 57°
2026-04-28 20:36 40.83332 9.39257 2481 ft 192 kts 57°
2026-04-28 20:36 40.83909 9.40359 2237 ft 189 kts 57°
2026-04-28 20:36 40.84629 9.41738 2094 ft 176 kts 58°
2026-04-28 20:37 40.85285 9.43010 1937 ft 164 kts 58°
2026-04-28 20:37 40.85930 9.44265 1533 ft 165 kts 58°
2026-04-28 20:37 40.86766 9.45902 1127 ft 156 kts 56°
2026-04-28 20:37 40.87173 9.46683 933 ft 150 kts 55°
2026-04-28 20:38 40.87758 9.47776 686 ft 143 kts 54°
2026-04-28 20:38 40.88333 9.48836 483 ft 142 kts 56°
2026-04-28 20:38 40.88884 9.49903 256 ft 142 kts 58°
2026-04-28 20:38 40.89444 9.50968 55 ft 139 kts 57°
2026-04-28 20:39 40.89906 9.51849 41 ft 79 kts 58°
2026-04-28 20:39 40.90108 9.52035 40 ft 13 kts
2026-04-28 20:39 40.90149 9.52027 38 ft 0 kts 331°
2026-04-28 20:40 40.90162 9.52010 41 ft 5 kts 300°
2026-04-28 20:40 40.90167 9.51998 41 ft 1 kts 297°
2026-04-28 20:40 40.90162 9.51939 41 ft 8 kts 246°
2026-04-28 20:41 40.90134 9.51880 41 ft 7 kts 237°
2026-04-28 20:41 40.90108 9.51830 41 ft 6 kts 235°
2026-04-28 20:41 40.90085 9.51786 42 ft 5 kts 235°
2026-04-28 20:41 40.90043 9.51705 42 ft 17 kts 235°
2026-04-28 20:42 40.90002 9.51627 43 ft 9 kts 235°
2026-04-28 20:42 40.89976 9.51563 43 ft 6 kts 261°
2026-04-28 20:42 40.89990 9.51530 40 ft 4 kts 330°
2026-04-28 20:42 40.90026 9.51504 43 ft 1 kts 332°
2026-04-28 20:43 40.90069 9.51482 43 ft 8 kts
2026-04-28 20:43 40.90093 9.51514 43 ft 2 kts 97°
2026-04-28 20:43 40.90067 9.51547 43 ft 5 kts 142°
2026-04-28 20:43 40.90064 9.51568 43 ft 2 kts 72°
2026-04-28 20:44 40.90068 9.51571 42 ft 0 kts 34°